Location: Newark
(0.5333°S, 166.9167°E)
Time: 11:36:23
(UTC+00:00)

N. Korean satellite - Visible Passes

Search period start: 25 March 2019 00:00
Search period end: 04 April 2019 00:00
Orbit: 456 x 510 km, 97.2° (Epoch: 24 March)

Date Brightness Start Highest point End Pass type
(mag) Time Alt. Az. Time Alt. Az. Time Alt. Az.
25 Mar 10.2 07:34:20 10° WSW 07:35:22 11° WSW 07:36:24 10° W visible
25 Mar 10.2 17:48:35 10° E 17:49:56 12° ESE 17:51:17 10° ESE visible
27 Mar 7.3 18:29:56 10° NNE 18:33:33 61° ESE 18:37:13 10° S visible
28 Mar 9.3 18:05:50 10° NE 18:08:48 23° ESE 18:11:49 10° SSE visible
29 Mar 9.9 07:27:41 10° SW 07:29:28 14° WSW 07:31:15 10° WNW visible
31 Mar 7.8 18:24:06 10° NNE 18:27:40 48° E 18:31:17 10° S visible
01 Apr 9.7 18:00:14 10° NE 18:02:55 19° ESE 18:05:38 10° SSE visible
02 Apr 9.7 07:21:16 10° SW 07:23:32 17° WSW 07:25:47 10° WNW visible
